owner,sensor,date,latitude,longitude,vertical_datum,wind_speed,wind_to_direction,wind_speed_of_gust,qcFlag 
ADCP,ioos:station:wmo:42887:1,2013-10-01T00:00:00Z,28.1910,-88.4960,48.2,5.0,86.0,99.0,'11111222,11111222,11144222' 
ADCP,ioos:station:wmo:42887:1,2013-10-01T00:20:00Z,28.1910,-88.4960,48.2,5.3,80.0,99.0,'11111222,11111222,11144222' 
ADCP,ioos:station:wmo:42887:1,2013-10-01T00:40:00Z,28.1910,-88.4960,48.2,4.1,76.0,99.0,'11111222,11111222,11144222' 
ADCP,ioos:station:wmo:42887:1,2013-10-01T01:00:00Z,28.1910,-88.4960,48.2,4.6,92.0,99.0,'11111222,11111222,11144222' 
ADCP,ioos:station:wmo:42887:1,2013-10-01T01:20:00Z,28.1910,-88.4960,48.2,5.8,85.0,99.0,'11111222,11111222,11144222' 
ADCP,ioos:station:wmo:42887:1,2013-10-01T01:40:00Z,28.1910,-88.4960,48.2,6.3,94.0,99.0,'11111222,11111222,11144222' 
ADCP,ioos:station:wmo:42887:1,2013-10-01T02:00:00Z,28.1910,-88.4960,48.2,5.6,81.0,99.0,'11111222,11111222,11144222' 
ADCP,ioos:station:wmo:42887:1,2013-10-01T02:20:00Z,28.1910,-88.4960,48.2,5.5,90.0,99.0,'11111222,11111222,11144222' 
ADCP,ioos:station:wmo:42887:1,2013-10-01T02:40:00Z,28.1910,-88.4960,48.2,6.2,99.0,99.0,'11111222,11111222,11144222' 
ADCP,ioos:station:wmo:42887:1,2013-10-01T03:00:00Z,28.1910,-88.4960,48.2,6.1,88.0,99.0,'11111222,11111222,11144222' 
ADCP,ioos:station:wmo:42887:1,2013-10-01T03:20:00Z,28.1910,-88.4960,48.2,7.1,101.0,99.0,'11111222,11111222,11144222' 
ADCP,ioos:station:wmo:42887:1,2013-10-01T03:40:00Z,28.1910,-88.4960,48.2,5.7,110.0,99.0,'11111222,11111222,11144222' 
ADCP,ioos:station:wmo:42887:1,2013-10-01T04:00:00Z,28.1910,-88.4960,48.2,5.7,99.0,99.0,'11111222,11111222,11144222' 
ADCP,ioos:station:wmo:42887:1,2013-10-01T04:20:00Z,28.1910,-88.4960,48.2,6.0,109.0,99.0,'11111222,11111222,11144222' 
ADCP,ioos:station:wmo:42887:1,2013-10-01T04:40:00Z,28.1910,-88.4960,48.2,6.2,108.0,99.0,'11111222,11111222,11144222' 
ADCP,ioos:station:wmo:42887:1,2013-10-01T05:00:00Z,28.1910,-88.4960,48.2,5.7,113.0,99.0,'11111222,11111222,11144222' 
ADCP,ioos:station:wmo:42887:1,2013-10-01T05:20:00Z,28.1910,-88.4960,48.2,5.7,106.0,99.0,'11111222,11111222,11144222' 
ADCP,ioos:station:wmo:42887:1,2013-10-01T05:40:00Z,28.1910,-88.4960,48.2,6.8,111.0,99.0,'11111222,11111222,11144222' 
ADCP,ioos:station:wmo:42887:1,2013-10-01T06:00:00Z,28.1910,-88.4960,48.2,6.6,112.0,99.0,'11111222,11111222,11144222' 
ADCP,ioos:station:wmo:42887:1,2013-10-01T06:20:00Z,28.1910,-88.4960,48.2,7.3,114.0,99.0,'11111222,11111222,11144222' 
ADCP,ioos:station:wmo:42887:1,2013-10-01T06:40:00Z,28.1910,-88.4960,48.2,6.8,115.0,99.0,'11111222,11111222,11144222' 
ADCP,ioos:station:wmo:42887:1,2013-10-01T07:00:00Z,28.1910,-88.4960,48.2,5.7,119.0,99.0,'11111222,11111222,11144222' 
ADCP,ioos:station:wmo:42887:1,2013-10-01T07:20:00Z,28.1910,-88.4960,48.2,6.4,127.0,99.0,'11111222,11111222,11144222' 
ADCP,ioos:station:wmo:42887:1,2013-10-01T07:40:00Z,28.1910,-88.4960,48.2,5.6,111.0,99.0,'11111222,11111222,11144222' 
ADCP,ioos:station:wmo:42887:1,2013-10-01T08:00:00Z,28.1910,-88.4960,48.2,4.6,113.0,99.0,'11111222,11111222,11144222' 
ADCP,ioos:station:wmo:42887:1,2013-10-01T08:20:00Z,28.1910,-88.4960,48.2,4.9,110.0,99.0,'11111222,11111222,11144222' 
ADCP,ioos:station:wmo:42887:1,2013-10-01T08:40:00Z,28.1910,-88.4960,48.2,4.5,113.0,99.0,'11111222,11111222,11144222' 
ADCP,ioos:station:wmo:42887:1,2013-10-01T09:00:00Z,28.1910,-88.4960,48.2,4.2,113.0,99.0,'11111222,11111222,11144222' 
ADCP,ioos:station:wmo:42887:1,2013-10-01T09:20:00Z,28.1910,-88.4960,48.2,4.4,103.0,99.0,'11111222,11111222,11144222' 
ADCP,ioos:station:wmo:42887:1,2013-10-01T09:40:00Z,28.1910,-88.4960,48.2,4.1,106.0,99.0,'11111222,11111222,11144222' 
ADCP,ioos:station:wmo:42887:1,2013-10-01T10:00:00Z,28.1910,-88.4960,48.2,4.0,109.0,99.0,'11111222,11111222,11144222' 
ADCP,ioos:station:wmo:42887:1,2013-10-01T10:20:00Z,28.1910,-88.4960,48.2,5.3,120.0,99.0,'11111222,11111222,11144222' 
ADCP,ioos:station:wmo:42887:1,2013-10-01T10:40:00Z,28.1910,-88.4960,48.2,4.9,111.0,99.0,'11111222,11111222,11144222' 
ADCP,ioos:station:wmo:42887:1,2013-10-01T11:00:00Z,28.1910,-88.4960,48.2,2.7,157.0,99.0,'11111222,11111222,11144222' 
ADCP,ioos:station:wmo:42887:1,2013-10-01T11:20:00Z,28.1910,-88.4960,48.2,4.4,157.0,99.0,'11111222,11111222,11144222' 
ADCP,ioos:station:wmo:42887:1,2013-10-01T11:40:00Z,28.1910,-88.4960,48.2,3.3,149.0,99.0,'11111222,11111222,11144222' 
ADCP,ioos:station:wmo:42887:1,2013-10-01T12:00:00Z,28.1910,-88.4960,48.2,1.6,160.0,99.0,'11111222,11111222,11144222' 
ADCP,ioos:station:wmo:42887:1,2013-10-01T12:20:00Z,28.1910,-88.4960,48.2,3.4,131.0,99.0,'11111222,11111222,11144222' 
ADCP,ioos:station:wmo:42887:1,2013-10-01T12:40:00Z,28.1910,-88.4960,48.2,2.2,151.0,99.0,'11111222,11111222,11144222' 
ADCP,ioos:station:wmo:42887:1,2013-10-01T13:00:00Z,28.1910,-88.4960,48.2,3.8,122.0,99.0,'11111222,11111222,11144222' 
ADCP,ioos:station:wmo:42887:1,2013-10-01T13:20:00Z,28.1910,-88.4960,48.2,2.8,99.0,99.0,'11111222,11111222,11144222' 
ADCP,ioos:station:wmo:42887:1,2013-10-01T13:40:00Z,28.1910,-88.4960,48.2,4.6,101.0,99.0,'11111222,11111222,11144222' 
ADCP,ioos:station:wmo:42887:1,2013-10-01T14:00:00Z,28.1910,-88.4960,48.2,4.5,97.0,99.0,'11111222,11111222,11144222' 
ADCP,ioos:station:wmo:42887:1,2013-10-01T14:20:00Z,28.1910,-88.4960,48.2,4.3,90.0,99.0,'11111222,11111222,11144222' 
ADCP,ioos:station:wmo:42887:1,2013-10-01T14:40:00Z,28.1910,-88.4960,48.2,4.4,92.0,99.0,'11111222,11111222,11144222' 
ADCP,ioos:station:wmo:42887:1,2013-10-01T15:00:00Z,28.1910,-88.4960,48.2,4.8,109.0,99.0,'11111222,11111222,11144222' 
ADCP,ioos:station:wmo:42887:1,2013-10-01T15:20:00Z,28.1910,-88.4960,48.2,5.9,110.0,99.0,'11111222,11111222,11144222' 
ADCP,ioos:station:wmo:42887:1,2013-10-01T15:40:00Z,28.1910,-88.4960,48.2,5.0,110.0,99.0,'11111222,11111222,11144222' 
ADCP,ioos:station:wmo:42887:1,2013-10-01T16:00:00Z,28.1910,-88.4960,48.2,4.5,123.0,99.0,'11111222,11111222,11144222' 
ADCP,ioos:station:wmo:42887:1,2013-10-01T16:20:00Z,28.1910,-88.4960,48.2,5.2,121.0,99.0,'11111222,11111222,11144222' 
ADCP,ioos:station:wmo:42887:1,2013-10-01T16:40:00Z,28.1910,-88.4960,48.2,4.1,128.0,99.0,'11111222,11111222,11144222' 
ADCP,ioos:station:wmo:42887:1,2013-10-01T17:00:00Z,28.1910,-88.4960,48.2,6.0,225.0,99.0,'11111222,11111222,11144222' 
ADCP,ioos:station:wmo:42887:1,2013-10-01T17:20:00Z,28.1910,-88.4960,48.2,6.1,213.0,99.0,'11111222,11111222,11144222' 
ADCP,ioos:station:wmo:42887:1,2013-10-01T17:40:00Z,28.1910,-88.4960,48.2,1.1,231.0,99.0,'11111222,11111222,11144222' 
ADCP,ioos:station:wmo:42887:1,2013-10-01T18:00:00Z,28.1910,-88.4960,48.2,0.1,284.0,99.0,'11111222,11111222,11144222' 
ADCP,ioos:station:wmo:42887:1,2013-10-01T18:20:00Z,28.1910,-88.4960,48.2,0.8,256.0,99.0,'11111222,11111222,11144222' 
ADCP,ioos:station:wmo:42887:1,2013-10-01T18:40:00Z,28.1910,-88.4960,48.2,1.4,259.0,99.0,'11111222,11111222,11144222' 
ADCP,ioos:station:wmo:42887:1,2013-10-01T19:00:00Z,28.1910,-88.4960,48.2,5.7,205.0,99.0,'11111222,11111222,11144222' 
ADCP,ioos:station:wmo:42887:1,2013-10-01T19:20:00Z,28.1910,-88.4960,48.2,2.1,210.0,99.0,'11111222,11111222,11144222' 
ADCP,ioos:station:wmo:42887:1,2013-10-01T19:40:00Z,28.1910,-88.4960,48.2,0.6,184.0,99.0,'11111222,11111222,11144222' 
ADCP,ioos:station:wmo:42887:1,2013-10-01T20:00:00Z,28.1910,-88.4960,48.2,0.2,141.0,99.0,'11111222,11111222,11144222' 
ADCP,ioos:station:wmo:42887:1,2013-10-01T20:20:00Z,28.1910,-88.4960,48.2,1.3,95.0,99.0,'11111222,11111222,11144222' 
ADCP,ioos:station:wmo:42887:1,2013-10-01T21:00:00Z,28.1910,-88.4960,48.2,0.5,74.0,99.0,'11111222,11111222,11144222' 
ADCP,ioos:station:wmo:42887:1,2013-10-01T21:20:00Z,28.1910,-88.4960,48.2,0.9,72.0,99.0,'11111222,11111222,11144222' 
ADCP,ioos:station:wmo:42887:1,2013-10-01T21:40:00Z,28.1910,-88.4960,48.2,0.9,52.0,99.0,'11111222,11111222,11144222' 
ADCP,ioos:station:wmo:42887:1,2013-10-01T22:00:00Z,28.1910,-88.4960,48.2,2.2,28.0,99.0,'11111222,11111222,11144222' 
ADCP,ioos:station:wmo:42887:1,2013-10-01T22:20:00Z,28.1910,-88.4960,48.2,3.3,96.0,99.0,'11111222,11111222,11144222' 
ADCP,ioos:station:wmo:42887:1,2013-10-01T22:40:00Z,28.1910,-88.4960,48.2,4.6,86.0,99.0,'11111222,11111222,11144222' 
ADCP,ioos:station:wmo:42887:1,2013-10-01T23:00:00Z,28.1910,-88.4960,48.2,3.2,102.0,99.0,'11111222,11111222,11144222' 
ADCP,ioos:station:wmo:42887:1,2013-10-01T23:20:00Z,28.1910,-88.4960,48.2,3.2,91.0,99.0,'11111222,11111222,11144222' 
ADCP,ioos:station:wmo:42887:1,2013-10-01T23:40:00Z,28.1910,-88.4960,48.2,2.3,108.0,99.0,'11111222,11111222,11144222' 
ADCP,ioos:station:wmo:42887:1,2013-10-02T00:00:00Z,28.1910,-88.4960,48.2,4.0,95.0,99.0,'11111222,11111222,11144222' 
ADCP,ioos:station:wmo:42887:1,2013-10-02T00:20:00Z,28.1910,-88.4960,48.2,4.3,93.0,99.0,'11111222,11111222,11144222' 
ADCP,ioos:station:wmo:42887:1,2013-10-02T00:40:00Z,28.1910,-88.4960,48.2,3.4,100.0,99.0,'11111222,11111222,11144222' 
ADCP,ioos:station:wmo:42887:1,2013-10-02T01:00:00Z,28.1910,-88.4960,48.2,4.6,89.0,99.0,'11111222,11111222,11144222' 
ADCP,ioos:station:wmo:42887:1,2013-10-02T01:20:00Z,28.1910,-88.4960,48.2,3.6,107.0,99.0,'11111222,11111222,11144222' 
ADCP,ioos:station:wmo:42887:1,2013-10-02T01:40:00Z,28.1910,-88.4960,48.2,5.4,92.0,99.0,'11111222,11111222,11144222' 
ADCP,ioos:station:wmo:42887:1,2013-10-02T02:00:00Z,28.1910,-88.4960,48.2,2.8,113.0,99.0,'11111222,11111222,11144222' 
ADCP,ioos:station:wmo:42887:1,2013-10-02T02:20:00Z,28.1910,-88.4960,48.2,4.9,111.0,99.0,'11111222,11111222,11144222' 
ADCP,ioos:station:wmo:42887:1,2013-10-02T02:40:00Z,28.1910,-88.4960,48.2,5.8,107.0,99.0,'11111222,11111222,11144222' 
ADCP,ioos:station:wmo:42887:1,2013-10-02T03:00:00Z,28.1910,-88.4960,48.2,5.6,107.0,99.0,'11111222,11111222,11144222' 
ADCP,ioos:station:wmo:42887:1,2013-10-02T03:20:00Z,28.1910,-88.4960,48.2,7.5,84.0,99.0,'11111222,11111222,11144222' 
ADCP,ioos:station:wmo:42887:1,2013-10-02T03:40:00Z,28.1910,-88.4960,48.2,6.8,92.0,99.0,'11111222,11111222,11144222' 
ADCP,ioos:station:wmo:42887:1,2013-10-02T04:00:00Z,28.1910,-88.4960,48.2,5.7,113.0,99.0,'11111222,11111222,11144222' 
ADCP,ioos:station:wmo:42887:1,2013-10-02T04:20:00Z,28.1910,-88.4960,48.2,6.6,122.0,99.0,'11111222,11111222,11144222' 
ADCP,ioos:station:wmo:42887:1,2013-10-02T04:40:00Z,28.1910,-88.4960,48.2,6.1,124.0,99.0,'11111222,11111222,11144222' 
ADCP,ioos:station:wmo:42887:1,2013-10-02T05:00:00Z,28.1910,-88.4960,48.2,6.5,113.0,99.0,'11111222,11111222,11144222' 
ADCP,ioos:station:wmo:42887:1,2013-10-02T05:20:00Z,28.1910,-88.4960,48.2,7.1,118.0,99.0,'11111222,11111222,11144222' 
ADCP,ioos:station:wmo:42887:1,2013-10-02T05:40:00Z,28.1910,-88.4960,48.2,6.7,130.0,99.0,'11111222,11111222,11144222' 
ADCP,ioos:station:wmo:42887:1,2013-10-02T06:00:00Z,28.1910,-88.4960,48.2,5.7,123.0,99.0,'11111222,11111222,11144222' 
ADCP,ioos:station:wmo:42887:1,2013-10-02T06:20:00Z,28.1910,-88.4960,48.2,6.4,119.0,99.0,'11111222,11111222,11144222' 
ADCP,ioos:station:wmo:42887:1,2013-10-02T06:40:00Z,28.1910,-88.4960,48.2,6.9,125.0,99.0,'11111222,11111222,11144222' 
ADCP,ioos:station:wmo:42887:1,2013-10-02T07:00:00Z,28.1910,-88.4960,48.2,5.9,129.0,99.0,'11111222,11111222,11144222' 
ADCP,ioos:station:wmo:42887:1,2013-10-02T07:20:00Z,28.1910,-88.4960,48.2,6.5,126.0,99.0,'11111222,11111222,11144222' 
ADCP,ioos:station:wmo:42887:1,2013-10-02T07:40:00Z,28.1910,-88.4960,48.2,6.1,134.0,99.0,'11111222,11111222,11144222' 
ADCP,ioos:station:wmo:42887:1,2013-10-02T08:00:00Z,28.1910,-88.4960,48.2,6.8,131.0,99.0,'11111222,11111222,11144222' 
ADCP,ioos:station:wmo:42887:1,2013-10-02T08:20:00Z,28.1910,-88.4960,48.2,6.8,132.0,99.0,'11111222,11111222,11144222' 
ADCP,ioos:station:wmo:42887:1,2013-10-02T08:40:00Z,28.1910,-88.4960,48.2,6.5,128.0,99.0,'11111222,11111222,11144222' 
ADCP,ioos:station:wmo:42887:1,2013-10-02T09:00:00Z,28.1910,-88.4960,48.2,6.4,132.0,99.0,'11111222,11111222,11144222' 
ADCP,ioos:station:wmo:42887:1,2013-10-02T09:20:00Z,28.1910,-88.4960,48.2,4.4,135.0,99.0,'11111222,11111222,11144222' 
ADCP,ioos:station:wmo:42887:1,2013-10-02T09:40:00Z,28.1910,-88.4960,48.2,5.6,125.0,99.0,'11111222,11111222,11144222' 
ADCP,ioos:station:wmo:42887:1,2013-10-02T10:00:00Z,28.1910,-88.4960,48.2,6.1,125.0,99.0,'11111222,11111222,11144222' 
ADCP,ioos:station:wmo:42887:1,2013-10-02T10:20:00Z,28.1910,-88.4960,48.2,5.8,125.0,99.0,'11111222,11111222,11144222' 
ADCP,ioos:station:wmo:42887:1,2013-10-02T10:40:00Z,28.1910,-88.4960,48.2,5.2,132.0,99.0,'11111222,11111222,11144222' 
ADCP,ioos:station:wmo:42887:1,2013-10-02T11:00:00Z,28.1910,-88.4960,48.2,5.8,136.0,99.0,'11111222,11111222,11144222' 
ADCP,ioos:station:wmo:42887:1,2013-10-02T11:20:00Z,28.1910,-88.4960,48.2,5.8,133.0,99.0,'11111222,11111222,11144222' 
ADCP,ioos:station:wmo:42887:1,2013-10-02T11:40:00Z,28.1910,-88.4960,48.2,4.9,132.0,99.0,'11111222,11111222,11144222' 
ADCP,ioos:station:wmo:42887:1,2013-10-02T12:00:00Z,28.1910,-88.4960,48.2,6.4,117.0,99.0,'11111222,11111222,11144222' 
ADCP,ioos:station:wmo:42887:1,2013-10-02T12:20:00Z,28.1910,-88.4960,48.2,5.5,127.0,99.0,'11111222,11111222,11144222' 
ADCP,ioos:station:wmo:42887:1,2013-10-02T12:40:00Z,28.1910,-88.4960,48.2,5.4,136.0,99.0,'11111222,11111222,11144222' 
ADCP,ioos:station:wmo:42887:1,2013-10-02T13:00:00Z,28.1910,-88.4960,48.2,4.5,136.0,99.0,'11111222,11111222,11144222' 
ADCP,ioos:station:wmo:42887:1,2013-10-02T13:20:00Z,28.1910,-88.4960,48.2,6.2,128.0,99.0,'11111222,11111222,11144222' 
ADCP,ioos:station:wmo:42887:1,2013-10-02T13:40:00Z,28.1910,-88.4960,48.2,5.0,131.0,99.0,'11111222,11111222,11144222' 
ADCP,ioos:station:wmo:42887:1,2013-10-02T14:00:00Z,28.1910,-88.4960,48.2,4.6,138.0,99.0,'11111222,11111222,11144222' 
ADCP,ioos:station:wmo:42887:1,2013-10-02T14:20:00Z,28.1910,-88.4960,48.2,4.1,126.0,99.0,'11111222,11111222,11144222' 
ADCP,ioos:station:wmo:42887:1,2013-10-02T14:40:00Z,28.1910,-88.4960,48.2,4.6,138.0,99.0,'11111222,11111222,11144222' 
ADCP,ioos:station:wmo:42887:1,2013-10-02T15:00:00Z,28.1910,-88.4960,48.2,3.1,128.0,99.0,'11111222,11111222,11144222' 
ADCP,ioos:station:wmo:42887:1,2013-10-02T15:20:00Z,28.1910,-88.4960,48.2,5.5,131.0,99.0,'11111222,11111222,11144222' 
ADCP,ioos:station:wmo:42887:1,2013-10-02T15:40:00Z,28.1910,-88.4960,48.2,3.2,136.0,99.0,'11111222,11111222,11144222' 
ADCP,ioos:station:wmo:42887:1,2013-10-02T16:00:00Z,28.1910,-88.4960,48.2,2.8,140.0,99.0,'11111222,11111222,11144222' 
ADCP,ioos:station:wmo:42887:1,2013-10-02T16:20:00Z,28.1910,-88.4960,48.2,2.4,150.0,99.0,'11111222,11111222,11144222' 
ADCP,ioos:station:wmo:42887:1,2013-10-02T16:40:00Z,28.1910,-88.4960,48.2,3.5,137.0,99.0,'11111222,11111222,11144222' 
ADCP,ioos:station:wmo:42887:1,2013-10-02T17:00:00Z,28.1910,-88.4960,48.2,2.3,139.0,99.0,'11111222,11111222,11144222' 
ADCP,ioos:station:wmo:42887:1,2013-10-02T17:20:00Z,28.1910,-88.4960,48.2,3.3,136.0,99.0,'11111222,11111222,11144222' 
ADCP,ioos:station:wmo:42887:1,2013-10-02T17:40:00Z,28.1910,-88.4960,48.2,2.3,123.0,99.0,'11111222,11111222,11144222' 
ADCP,ioos:station:wmo:42887:1,2013-10-02T18:00:00Z,28.1910,-88.4960,48.2,3.9,134.0,99.0,'11111222,11111222,11144222' 
ADCP,ioos:station:wmo:42887:1,2013-10-02T18:20:00Z,28.1910,-88.4960,48.2,2.9,126.0,99.0,'11111222,11111222,11144222' 
ADCP,ioos:station:wmo:42887:1,2013-10-02T18:40:00Z,28.1910,-88.4960,48.2,3.3,132.0,99.0,'11111222,11111222,11144222' 
ADCP,ioos:station:wmo:42887:1,2013-10-02T19:00:00Z,28.1910,-88.4960,48.2,1.5,140.0,99.0,'11111222,11111222,11144222' 
ADCP,ioos:station:wmo:42887:1,2013-10-02T19:20:00Z,28.1910,-88.4960,48.2,3.8,123.0,99.0,'11111222,11111222,11144222' 
ADCP,ioos:station:wmo:42887:1,2013-10-02T19:40:00Z,28.1910,-88.4960,48.2,4.4,33.0,99.0,'11111222,11111222,11144222' 
ADCP,ioos:station:wmo:42887:1,2013-10-02T20:00:00Z,28.1910,-88.4960,48.2,3.9,120.0,99.0,'11111222,11111222,11144222' 
ADCP,ioos:station:wmo:42887:1,2013-10-02T20:20:00Z,28.1910,-88.4960,48.2,2.9,100.0,99.0,'11111222,11111222,11144222' 
ADCP,ioos:station:wmo:42887:1,2013-10-02T20:40:00Z,28.1910,-88.4960,48.2,3.9,123.0,99.0,'11111222,11111222,11144222' 
ADCP,ioos:station:wmo:42887:1,2013-10-02T21:00:00Z,28.1910,-88.4960,48.2,5.7,120.0,99.0,'11111222,11111222,11144222' 
ADCP,ioos:station:wmo:42887:1,2013-10-02T21:20:00Z,28.1910,-88.4960,48.2,5.9,116.0,99.0,'11111222,11111222,11144222' 
ADCP,ioos:station:wmo:42887:1,2013-10-02T21:40:00Z,28.1910,-88.4960,48.2,5.8,111.0,99.0,'11111222,11111222,11144222' 
ADCP,ioos:station:wmo:42887:1,2013-10-02T22:00:00Z,28.1910,-88.4960,48.2,5.7,120.0,99.0,'11111222,11111222,11144222' 
ADCP,ioos:station:wmo:42887:1,2013-10-02T22:20:00Z,28.1910,-88.4960,48.2,5.0,112.0,99.0,'11111222,11111222,11144222' 
ADCP,ioos:station:wmo:42887:1,2013-10-02T22:40:00Z,28.1910,-88.4960,48.2,5.6,100.0,99.0,'11111222,11111222,11144222' 
ADCP,ioos:station:wmo:42887:1,2013-10-02T23:00:00Z,28.1910,-88.4960,48.2,5.8,112.0,99.0,'11111222,11111222,11144222' 
ADCP,ioos:station:wmo:42887:1,2013-10-02T23:20:00Z,28.1910,-88.4960,48.2,5.4,112.0,99.0,'11111222,11111222,11144222' 
ADCP,ioos:station:wmo:42887:1,2013-10-02T23:40:00Z,28.1910,-88.4960,48.2,4.8,110.0,99.0,'11111222,11111222,11144222' 
ADCP,ioos:station:wmo:42887:1,2013-10-03T00:00:00Z,28.1910,-88.4960,48.2,6.2,123.0,99.0,'11111222,11111222,11144222' 
ADCP,ioos:station:wmo:42887:1,2013-10-03T00:20:00Z,28.1910,-88.4960,48.2,6.2,113.0,99.0,'11111222,11111222,11144222' 
ADCP,ioos:station:wmo:42887:1,2013-10-03T00:40:00Z,28.1910,-88.4960,48.2,6.8,119.0,99.0,'11111222,11111222,11144222' 
ADCP,ioos:station:wmo:42887:1,2013-10-03T01:00:00Z,28.1910,-88.4960,48.2,5.5,112.0,99.0,'11111222,11111222,11144222' 
ADCP,ioos:station:wmo:42887:1,2013-10-03T01:20:00Z,28.1910,-88.4960,48.2,5.7,110.0,99.0,'11111222,11111222,11144222' 
ADCP,ioos:station:wmo:42887:1,2013-10-03T01:40:00Z,28.1910,-88.4960,48.2,8.3,120.0,99.0,'11111222,11111222,11144222' 
ADCP,ioos:station:wmo:42887:1,2013-10-03T02:00:00Z,28.1910,-88.4960,48.2,7.3,113.0,99.0,'11111222,11111222,11144222' 
ADCP,ioos:station:wmo:42887:1,2013-10-03T02:20:00Z,28.1910,-88.4960,48.2,7.7,111.0,99.0,'11111222,11111222,11144222' 
ADCP,ioos:station:wmo:42887:1,2013-10-03T02:40:00Z,28.1910,-88.4960,48.2,6.2,109.0,99.0,'11111222,11111222,11144222' 
ADCP,ioos:station:wmo:42887:1,2013-10-03T03:00:00Z,28.1910,-88.4960,48.2,8.0,104.0,99.0,'11111222,11111222,11144222' 
ADCP,ioos:station:wmo:42887:1,2013-10-03T03:20:00Z,28.1910,-88.4960,48.2,8.3,122.0,99.0,'11111222,11111222,11144222' 
ADCP,ioos:station:wmo:42887:1,2013-10-03T03:40:00Z,28.1910,-88.4960,48.2,8.0,117.0,99.0,'11111222,11111222,11144222' 
ADCP,ioos:station:wmo:42887:1,2013-10-03T04:00:00Z,28.1910,-88.4960,48.2,7.6,114.0,99.0,'11111222,11111222,11144222' 
ADCP,ioos:station:wmo:42887:1,2013-10-03T04:20:00Z,28.1910,-88.4960,48.2,7.9,117.0,99.0,'11111222,11111222,11144222' 
ADCP,ioos:station:wmo:42887:1,2013-10-03T04:40:00Z,28.1910,-88.4960,48.2,7.9,118.0,99.0,'11111222,11111222,11144222' 
ADCP,ioos:station:wmo:42887:1,2013-10-03T05:00:00Z,28.1910,-88.4960,48.2,6.5,110.0,99.0,'11111222,11111222,11144222' 
ADCP,ioos:station:wmo:42887:1,2013-10-03T05:20:00Z,28.1910,-88.4960,48.2,9.6,117.0,99.0,'11111222,11111222,11144222' 
ADCP,ioos:station:wmo:42887:1,2013-10-03T05:40:00Z,28.1910,-88.4960,48.2,8.0,119.0,99.0,'11111222,11111222,11144222' 
ADCP,ioos:station:wmo:42887:1,2013-10-03T06:00:00Z,28.1910,-88.4960,48.2,8.3,113.0,99.0,'11111222,11111222,11144222' 
ADCP,ioos:station:wmo:42887:1,2013-10-03T06:20:00Z,28.1910,-88.4960,48.2,8.6,113.0,99.0,'11111222,11111222,11144222' 
ADCP,ioos:station:wmo:42887:1,2013-10-03T06:40:00Z,28.1910,-88.4960,48.2,6.1,106.0,99.0,'11111222,11111222,11144222' 
ADCP,ioos:station:wmo:42887:1,2013-10-03T07:00:00Z,28.1910,-88.4960,48.2,6.1,111.0,99.0,'11111222,11111222,11144222' 
ADCP,ioos:station:wmo:42887:1,2013-10-03T07:20:00Z,28.1910,-88.4960,48.2,6.8,111.0,99.0,'11111222,11111222,11144222' 
ADCP,ioos:station:wmo:42887:1,2013-10-03T07:40:00Z,28.1910,-88.4960,48.2,8.0,106.0,99.0,'11111222,11111222,11144222' 
ADCP,ioos:station:wmo:42887:1,2013-10-03T08:00:00Z,28.1910,-88.4960,48.2,6.8,112.0,99.0,'11111222,11111222,11144222' 
ADCP,ioos:station:wmo:42887:1,2013-10-03T08:20:00Z,28.1910,-88.4960,48.2,7.5,109.0,99.0,'11111222,11111222,11144222' 
ADCP,ioos:station:wmo:42887:1,2013-10-03T08:40:00Z,28.1910,-88.4960,48.2,6.8,107.0,99.0,'11111222,11111222,11144222' 
ADCP,ioos:station:wmo:42887:1,2013-10-03T09:00:00Z,28.1910,-88.4960,48.2,7.0,114.0,99.0,'11111222,11111222,11144222' 
ADCP,ioos:station:wmo:42887:1,2013-10-03T09:20:00Z,28.1910,-88.4960,48.2,8.4,98.0,99.0,'11111222,11111222,11144222' 
ADCP,ioos:station:wmo:42887:1,2013-10-03T09:40:00Z,28.1910,-88.4960,48.2,8.1,114.0,99.0,'11111222,11111222,11144222' 
ADCP,ioos:station:wmo:42887:1,2013-10-03T10:00:00Z,28.1910,-88.4960,48.2,5.0,106.0,99.0,'11111222,11111222,11144222' 
ADCP,ioos:station:wmo:42887:1,2013-10-03T10:20:00Z,28.1910,-88.4960,48.2,8.0,103.0,99.0,'11111222,11111222,11144222' 
ADCP,ioos:station:wmo:42887:1,2013-10-03T10:40:00Z,28.1910,-88.4960,48.2,6.3,110.0,99.0,'11111222,11111222,11144222' 
ADCP,ioos:station:wmo:42887:1,2013-10-03T11:00:00Z,28.1910,-88.4960,48.2,6.0,106.0,99.0,'11111222,11111222,11144222' 
ADCP,ioos:station:wmo:42887:1,2013-10-03T11:20:00Z,28.1910,-88.4960,48.2,8.2,117.0,99.0,'11111222,11111222,11144222' 
ADCP,ioos:station:wmo:42887:1,2013-10-03T11:40:00Z,28.1910,-88.4960,48.2,8.4,114.0,99.0,'11111222,11111222,11144222' 
ADCP,ioos:station:wmo:42887:1,2013-10-03T12:00:00Z,28.1910,-88.4960,48.2,8.0,115.0,99.0,'11111222,11111222,11144222' 
ADCP,ioos:station:wmo:42887:1,2013-10-03T12:20:00Z,28.1910,-88.4960,48.2,7.6,110.0,99.0,'11111222,11111222,11144222' 
ADCP,ioos:station:wmo:42887:1,2013-10-03T12:40:00Z,28.1910,-88.4960,48.2,7.6,120.0,99.0,'11111222,11111222,11144222' 
ADCP,ioos:station:wmo:42887:1,2013-10-03T13:00:00Z,28.1910,-88.4960,48.2,5.9,113.0,99.0,'11111222,11111222,11144222' 
ADCP,ioos:station:wmo:42887:1,2013-10-03T13:20:00Z,28.1910,-88.4960,48.2,6.0,111.0,99.0,'11111222,11111222,11144222' 
ADCP,ioos:station:wmo:42887:1,2013-10-03T13:40:00Z,28.1910,-88.4960,48.2,5.7,109.0,99.0,'11111222,11111222,11144222' 
ADCP,ioos:station:wmo:42887:1,2013-10-03T14:00:00Z,28.1910,-88.4960,48.2,6.9,119.0,99.0,'11111222,11111222,11144222' 
ADCP,ioos:station:wmo:42887:1,2013-10-03T14:20:00Z,28.1910,-88.4960,48.2,7.0,124.0,99.0,'11111222,11111222,11144222' 
ADCP,ioos:station:wmo:42887:1,2013-10-03T14:40:00Z,28.1910,-88.4960,48.2,6.5,127.0,99.0,'11111222,11111222,11144222' 
ADCP,ioos:station:wmo:42887:1,2013-10-03T15:00:00Z,28.1910,-88.4960,48.2,5.9,121.0,99.0,'11111222,11111222,11144222' 
ADCP,ioos:station:wmo:42887:1,2013-10-03T15:20:00Z,28.1910,-88.4960,48.2,4.3,125.0,99.0,'11111222,11111222,11144222' 
ADCP,ioos:station:wmo:42887:1,2013-10-03T15:40:00Z,28.1910,-88.4960,48.2,6.3,129.0,99.0,'11111222,11111222,11144222' 
ADCP,ioos:station:wmo:42887:1,2013-10-03T16:00:00Z,28.1910,-88.4960,48.2,4.4,145.0,99.0,'11111222,11111222,11144222' 
ADCP,ioos:station:wmo:42887:1,2013-10-03T16:20:00Z,28.1910,-88.4960,48.2,4.5,146.0,99.0,'11111222,11111222,11144222' 
ADCP,ioos:station:wmo:42887:1,2013-10-03T16:40:00Z,28.1910,-88.4960,48.2,2.4,155.0,99.0,'11111222,11111222,11144222' 
ADCP,ioos:station:wmo:42887:1,2013-10-03T17:00:00Z,28.1910,-88.4960,48.2,3.5,164.0,99.0,'11111222,11111222,11144222' 
ADCP,ioos:station:wmo:42887:1,2013-10-03T17:20:00Z,28.1910,-88.4960,48.2,3.8,156.0,99.0,'11111222,11111222,11144222' 
ADCP,ioos:station:wmo:42887:1,2013-10-03T17:40:00Z,28.1910,-88.4960,48.2,4.2,138.0,99.0,'11111222,11111222,11144222' 
ADCP,ioos:station:wmo:42887:1,2013-10-03T18:00:00Z,28.1910,-88.4960,48.2,3.8,154.0,99.0,'11111222,11111222,11144222' 
ADCP,ioos:station:wmo:42887:1,2013-10-03T18:20:00Z,28.1910,-88.4960,48.2,4.4,155.0,99.0,'11111222,11111222,11144222' 
ADCP,ioos:station:wmo:42887:1,2013-10-03T18:40:00Z,28.1910,-88.4960,48.2,4.8,141.0,99.0,'11111222,11111222,11144222' 
ADCP,ioos:station:wmo:42887:1,2013-10-03T19:00:00Z,28.1910,-88.4960,48.2,5.0,137.0,99.0,'11111222,11111222,11144222' 
ADCP,ioos:station:wmo:42887:1,2013-10-03T19:20:00Z,28.1910,-88.4960,48.2,4.9,137.0,99.0,'11111222,11111222,11144222' 